EJU4328 LIMC-ELLX

Flight info

Callsign EJU4328
Flight time 0h 52m
Altitude 34000
Route AOSTA DCT ORSUD DCT MOLUS DCT GILIR DCT PENDU DCT IXILU DCT EPL G21 GIVOR
Aircraft A20N/M-SDE2E3FGHIRWXY/LB1

Departure

Time 2026-05-07 15:50
Airport Milan Malpensa International Airport (LIMC)

Arrival

Time 2026-05-07 16:43
Airport Luxembourg-Findel International Airport (ELLX)
Time Latitude Longitude Altitude Speed Heading
2026-05-07 15:14 45.64536 8.72480 769 ft 0 kts 349°
2026-05-07 15:35 45.64536 8.72481 769 ft 0 kts 349°
2026-05-07 15:35 45.64531 8.72482 769 ft 1 kts 26°
2026-05-07 15:36 45.64519 8.72471 769 ft 2 kts 36°
2026-05-07 15:36 45.64507 8.72458 769 ft 2 kts 44°
2026-05-07 15:36 45.64497 8.72447 769 ft 2 kts 19°
2026-05-07 15:36 45.64484 8.72438 768 ft 2 kts 34°
2026-05-07 15:37 45.64472 8.72425 768 ft 2 kts 41°
2026-05-07 15:37 45.64461 8.72410 767 ft 2 kts 51°
2026-05-07 15:37 45.64452 8.72393 767 ft 2 kts 60°
2026-05-07 15:37 45.64446 8.72373 767 ft 2 kts 69°
2026-05-07 15:38 45.64441 8.72353 766 ft 2 kts 78°
2026-05-07 15:38 45.64439 8.72332 766 ft 2 kts 82°
2026-05-07 15:38 45.64438 8.72322 766 ft 0 kts 80°
2026-05-07 15:38 45.64440 8.72340 766 ft 0 kts 79°
2026-05-07 15:39 45.64441 8.72348 766 ft 2 kts 79°
2026-05-07 15:39 45.64442 8.72353 766 ft 0 kts 79°
2026-05-07 15:41 45.64444 8.72365 766 ft 3 kts 78°
2026-05-07 15:41 45.64426 8.72421 766 ft 11 kts 152°
2026-05-07 15:41 45.64334 8.72450 762 ft 14 kts 172°
2026-05-07 15:42 45.64231 8.72480 760 ft 15 kts 167°
2026-05-07 15:42 45.64124 8.72509 757 ft 16 kts 169°
2026-05-07 15:42 45.64008 8.72548 753 ft 18 kts 167°
2026-05-07 15:42 45.63882 8.72584 750 ft 18 kts 170°
2026-05-07 15:43 45.63753 8.72618 746 ft 19 kts 169°
2026-05-07 15:43 45.63617 8.72656 742 ft 20 kts 169°
2026-05-07 15:43 45.63480 8.72694 739 ft 20 kts 169°
2026-05-07 15:43 45.63348 8.72731 738 ft 19 kts 169°
2026-05-07 15:44 45.63217 8.72767 735 ft 19 kts 169°
2026-05-07 15:44 45.63079 8.72806 732 ft 20 kts 169°
2026-05-07 15:44 45.62935 8.72845 728 ft 21 kts 170°
2026-05-07 15:44 45.62785 8.72882 726 ft 22 kts 170°
2026-05-07 15:45 45.62633 8.72930 724 ft 22 kts 168°
2026-05-07 15:45 45.62477 8.72974 720 ft 23 kts 170°
2026-05-07 15:45 45.62315 8.73014 716 ft 24 kts 171°
2026-05-07 15:45 45.62149 8.73065 712 ft 24 kts 170°
2026-05-07 15:46 45.61858 8.73144 705 ft 12 kts 168°
2026-05-07 15:46 45.61766 8.73180 702 ft 14 kts 145°
2026-05-07 15:46 45.61696 8.73302 698 ft 17 kts 124°
2026-05-07 15:47 45.61650 8.73408 697 ft 8 kts 122°
2026-05-07 15:47 45.61633 8.73450 696 ft 3 kts 121°
2026-05-07 15:47 45.61614 8.73492 696 ft 5 kts 122°
2026-05-07 15:47 45.61593 8.73545 696 ft 5 kts 112°
2026-05-07 15:48 45.61589 8.73574 696 ft 0 kts 93°
2026-05-07 15:48 45.61588 8.73592 696 ft 3 kts 92°
2026-05-07 15:49 45.61592 8.73649 696 ft 9 kts 80°
2026-05-07 15:49 45.61615 8.73732 697 ft 8 kts 26°
2026-05-07 15:49 45.61640 8.73733 698 ft 1 kts 354°
2026-05-07 15:49 45.61657 8.73730 698 ft 8 kts 352°
2026-05-07 15:50 45.61964 8.73644 705 ft 83 kts 349°
2026-05-07 15:50 45.62756 8.73424 719 ft 148 kts 349°
2026-05-07 15:50 45.63919 8.73110 1017 ft 177 kts 349°
2026-05-07 15:50 45.65120 8.72829 1705 ft 179 kts 354°
2026-05-07 15:51 45.66391 8.72733 2250 ft 191 kts
2026-05-07 15:51 45.67736 8.72771 2813 ft 202 kts
2026-05-07 15:51 45.69163 8.72968 3410 ft 210 kts 20°
2026-05-07 15:51 45.70293 8.74199 4082 ft 212 kts 58°
2026-05-07 15:52 45.70648 8.76199 4799 ft 213 kts 96°
2026-05-07 15:52 45.70102 8.78134 5530 ft 215 kts 127°
2026-05-07 15:52 45.68889 8.79410 6041 ft 229 kts 163°
2026-05-07 15:52 45.67245 8.79337 6379 ft 253 kts 203°
2026-05-07 15:53 45.65846 8.77728 6836 ft 272 kts 238°
2026-05-07 15:53 45.65148 8.75181 7440 ft 283 kts 257°
2026-05-07 15:53 45.64758 8.72448 8264 ft 287 kts 260°
2026-05-07 15:53 45.64384 8.69656 9127 ft 289 kts 263°
2026-05-07 15:54 45.64308 8.66810 9966 ft 291 kts 274°
2026-05-07 15:54 45.64442 8.63917 10669 ft 298 kts 275°
2026-05-07 15:54 45.64597 8.60886 11088 ft 315 kts 275°
2026-05-07 15:54 45.64731 8.57726 11684 ft 324 kts 274°
2026-05-07 15:55 45.64841 8.54548 12470 ft 327 kts 274°
2026-05-07 15:55 45.64939 8.51296 13270 ft 329 kts 273°
2026-05-07 15:55 45.65029 8.48041 14044 ft 331 kts 273°
2026-05-07 15:55 45.65114 8.44763 14793 ft 333 kts 272°
2026-05-07 15:56 45.65195 8.41490 15505 ft 336 kts 272°
2026-05-07 15:56 45.65277 8.38117 16220 ft 339 kts 272°
2026-05-07 15:56 45.65358 8.34797 16901 ft 341 kts 272°
2026-05-07 15:56 45.65442 8.31396 17602 ft 344 kts 272°
2026-05-07 15:57 45.65551 8.27975 18286 ft 346 kts 273°
2026-05-07 15:57 45.65789 8.24571 18919 ft 349 kts 283°
2026-05-07 15:57 45.66587 8.21292 19584 ft 352 kts 292°
2026-05-07 15:57 45.67558 8.18110 20225 ft 354 kts 296°
2026-05-07 15:58 45.69053 8.15297 20795 ft 361 kts 318°
2026-05-07 15:58 45.71100 8.13243 21424 ft 365 kts 327°
2026-05-07 15:58 45.73336 8.11543 22017 ft 370 kts 331°
2026-05-07 15:58 45.75642 8.09920 22619 ft 372 kts 331°
2026-05-07 15:59 45.77979 8.08235 23201 ft 375 kts 330°
2026-05-07 15:59 45.80273 8.06533 23757 ft 378 kts 330°
2026-05-07 15:59 45.82610 8.04777 24290 ft 381 kts 330°
2026-05-07 15:59 45.84952 8.03009 24798 ft 384 kts 329°
2026-05-07 16:00 45.87332 8.01207 25286 ft 386 kts 329°
2026-05-07 16:00 45.89719 7.99395 25745 ft 389 kts 329°
2026-05-07 16:00 45.92108 7.97579 26194 ft 392 kts 329°
2026-05-07 16:00 45.94513 7.95747 26633 ft 394 kts 329°
2026-05-07 16:01 45.96927 7.93907 27066 ft 396 kts 329°
2026-05-07 16:01 45.99355 7.92054 27489 ft 398 kts 328°
2026-05-07 16:01 46.01826 7.90165 27907 ft 400 kts 328°
2026-05-07 16:01 46.04285 7.88286 28311 ft 402 kts 328°
2026-05-07 16:02 46.06751 7.86399 28709 ft 404 kts 328°
2026-05-07 16:02 46.09225 7.84505 29218 ft 403 kts 328°
2026-05-07 16:02 46.11675 7.82629 29759 ft 400 kts 328°
2026-05-07 16:02 46.14106 7.80765 30250 ft 398 kts 327°
2026-05-07 16:03 46.16537 7.78897 30737 ft 397 kts 327°
2026-05-07 16:03 46.18958 7.77033 31176 ft 395 kts 327°
2026-05-07 16:03 46.21394 7.75162 31581 ft 395 kts 327°
2026-05-07 16:03 46.23809 7.73302 31977 ft 394 kts 327°
2026-05-07 16:04 46.26215 7.71447 32351 ft 393 kts 327°
2026-05-07 16:04 46.28594 7.69612 32678 ft 394 kts 327°
2026-05-07 16:04 46.31028 7.67728 32965 ft 395 kts 327°
2026-05-07 16:04 46.33434 7.65866 33255 ft 396 kts 327°
2026-05-07 16:05 46.35865 7.63982 33523 ft 397 kts 327°
2026-05-07 16:05 46.38299 7.62096 33781 ft 398 kts 327°
2026-05-07 16:05 46.40713 7.60223 33980 ft 399 kts 327°
2026-05-07 16:06 46.45612 7.56410 34003 ft 401 kts 327°
2026-05-07 16:06 46.50520 7.52587 33993 ft 401 kts 327°
2026-05-07 16:07 46.55406 7.48771 33996 ft 400 kts 327°
2026-05-07 16:07 46.60329 7.44918 34004 ft 401 kts 327°
2026-05-07 16:08 46.65233 7.41075 34018 ft 401 kts 327°
2026-05-07 16:08 46.70121 7.37230 34011 ft 402 kts 327°
2026-05-07 16:09 46.75021 7.33381 34004 ft 401 kts 327°
2026-05-07 16:09 46.79919 7.29523 34002 ft 401 kts 327°
2026-05-07 16:10 46.84817 7.25654 33999 ft 401 kts 327°
2026-05-07 16:10 46.89724 7.21768 34002 ft 401 kts 327°
2026-05-07 16:11 46.94600 7.17896 33993 ft 401 kts 327°
2026-05-07 16:11 46.99462 7.14029 33995 ft 402 kts 327°
2026-05-07 16:12 47.04462 7.10038 33994 ft 417 kts 327°
2026-05-07 16:12 47.09632 7.05905 33997 ft 430 kts 327°
2026-05-07 16:13 47.14934 7.01663 33996 ft 437 kts 327°
2026-05-07 16:13 47.20284 6.97372 33998 ft 439 kts 328°
2026-05-07 16:14 47.25624 6.93076 33998 ft 439 kts 328°
2026-05-07 16:14 47.31009 6.88736 33993 ft 438 kts 328°
2026-05-07 16:15 47.36353 6.84424 33994 ft 439 kts 328°
2026-05-07 16:15 47.41690 6.80100 33994 ft 438 kts 328°
2026-05-07 16:16 47.47044 6.75753 33999 ft 439 kts 328°
2026-05-07 16:16 47.52382 6.71408 33999 ft 440 kts 328°
2026-05-07 16:17 47.57714 6.67057 33997 ft 440 kts 328°
2026-05-07 16:17 47.63074 6.62679 33996 ft 440 kts 328°
2026-05-07 16:18 47.68409 6.58311 33988 ft 440 kts 328°
2026-05-07 16:18 47.73754 6.53921 33992 ft 440 kts 328°
2026-05-07 16:19 47.79099 6.49517 33995 ft 440 kts 328°
2026-05-07 16:19 47.84439 6.45106 33997 ft 441 kts 328°
2026-05-07 16:20 47.89823 6.40660 34001 ft 441 kts 329°
2026-05-07 16:20 47.95169 6.36282 33999 ft 440 kts 329°
2026-05-07 16:21 48.00534 6.31877 33711 ft 440 kts 328°
2026-05-07 16:21 48.03223 6.29664 33467 ft 440 kts 328°
2026-05-07 16:21 48.05878 6.27475 33141 ft 442 kts 328°
2026-05-07 16:21 48.08586 6.25237 32595 ft 443 kts 328°
2026-05-07 16:22 48.11346 6.23156 31948 ft 445 kts 335°
2026-05-07 16:22 48.14260 6.21752 31347 ft 446 kts 344°
2026-05-07 16:22 48.17319 6.20996 30661 ft 448 kts 353°
2026-05-07 16:22 48.20432 6.20911 29919 ft 449 kts
2026-05-07 16:23 48.23484 6.21486 29200 ft 450 kts
2026-05-07 16:23 48.26532 6.22611 28494 ft 450 kts 13°
2026-05-07 16:23 48.29523 6.23835 27796 ft 448 kts 13°
2026-05-07 16:23 48.32515 6.25079 27102 ft 446 kts 13°
2026-05-07 16:24 48.35504 6.26314 26410 ft 444 kts 13°
2026-05-07 16:24 48.38450 6.27524 25795 ft 441 kts 13°
2026-05-07 16:24 48.41385 6.28723 25254 ft 436 kts 13°
2026-05-07 16:24 48.44268 6.29898 24742 ft 430 kts 13°
2026-05-07 16:25 48.47163 6.31076 24239 ft 425 kts 13°
2026-05-07 16:25 48.49962 6.32217 23752 ft 420 kts 13°
2026-05-07 16:25 48.52771 6.33362 23259 ft 416 kts 13°
2026-05-07 16:25 48.55551 6.34496 22768 ft 412 kts 13°
2026-05-07 16:26 48.58305 6.35621 22273 ft 409 kts 13°
2026-05-07 16:26 48.61034 6.36738 21788 ft 405 kts 13°
2026-05-07 16:26 48.63726 6.37841 21302 ft 402 kts 13°
2026-05-07 16:26 48.66405 6.38790 20819 ft 398 kts
2026-05-07 16:27 48.69141 6.39370 20317 ft 394 kts
2026-05-07 16:27 48.71866 6.39679 19830 ft 391 kts
2026-05-07 16:27 48.74562 6.39921 19342 ft 388 kts
2026-05-07 16:27 48.77213 6.40143 18853 ft 385 kts
2026-05-07 16:28 48.79880 6.40367 18389 ft 383 kts
2026-05-07 16:28 48.82532 6.40589 17901 ft 380 kts
2026-05-07 16:28 48.85134 6.40808 17435 ft 378 kts
2026-05-07 16:28 48.87759 6.41031 16968 ft 376 kts
2026-05-07 16:29 48.90369 6.41253 16483 ft 373 kts
2026-05-07 16:29 48.92922 6.41472 16026 ft 370 kts
2026-05-07 16:29 48.95471 6.41690 15565 ft 368 kts
2026-05-07 16:29 48.98022 6.41910 15104 ft 366 kts
2026-05-07 16:30 49.00561 6.42128 14635 ft 363 kts
2026-05-07 16:30 49.03072 6.42345 14167 ft 361 kts
2026-05-07 16:30 49.05543 6.42558 13711 ft 359 kts
2026-05-07 16:30 49.08016 6.42771 13259 ft 357 kts
2026-05-07 16:31 49.10491 6.42986 12808 ft 354 kts
2026-05-07 16:31 49.12954 6.43200 12354 ft 352 kts
2026-05-07 16:31 49.15366 6.43409 11905 ft 350 kts
2026-05-07 16:31 49.17785 6.43618 11449 ft 347 kts
2026-05-07 16:32 49.20197 6.43827 10995 ft 345 kts
2026-05-07 16:32 49.22583 6.44035 10582 ft 341 kts
2026-05-07 16:32 49.24882 6.44235 10405 ft 329 kts
2026-05-07 16:32 49.27130 6.44432 10277 ft 316 kts
2026-05-07 16:33 49.29262 6.44618 10151 ft 304 kts
2026-05-07 16:33 49.31338 6.44799 10031 ft 292 kts
2026-05-07 16:33 49.33345 6.44973 9722 ft 289 kts
2026-05-07 16:33 49.35331 6.45146 9370 ft 287 kts
2026-05-07 16:34 49.37323 6.45319 9029 ft 285 kts
2026-05-07 16:34 49.39301 6.45492 8697 ft 283 kts
2026-05-07 16:34 49.41251 6.45662 8369 ft 280 kts
2026-05-07 16:34 49.43165 6.45829 8048 ft 278 kts
2026-05-07 16:35 49.45100 6.46000 7724 ft 275 kts
2026-05-07 16:35 49.46995 6.46166 7405 ft 273 kts
2026-05-07 16:35 49.48882 6.46333 7089 ft 270 kts
2026-05-07 16:35 49.50747 6.46495 6781 ft 268 kts
2026-05-07 16:36 49.52579 6.46656 6477 ft 265 kts
2026-05-07 16:36 49.54418 6.46819 6169 ft 263 kts
2026-05-07 16:36 49.56240 6.47011 5857 ft 261 kts
2026-05-07 16:36 49.57991 6.47589 5546 ft 259 kts 17°
2026-05-07 16:37 49.59670 6.48557 5238 ft 257 kts 21°
2026-05-07 16:37 49.61286 6.49593 5136 ft 245 kts 22°
2026-05-07 16:37 49.62820 6.50586 5063 ft 233 kts 22°
2026-05-07 16:37 49.64331 6.51197 4940 ft 225 kts 356°
2026-05-07 16:38 49.65811 6.50457 4688 ft 227 kts 329°
2026-05-07 16:38 49.67143 6.49202 4550 ft 225 kts 329°
2026-05-07 16:38 49.68482 6.47970 4519 ft 219 kts 330°
2026-05-07 16:38 49.69776 6.46804 4422 ft 209 kts 331°
2026-05-07 16:39 49.70960 6.45584 4255 ft 207 kts 313°
2026-05-07 16:39 49.71503 6.43568 4067 ft 209 kts 267°
2026-05-07 16:39 49.71005 6.41584 3993 ft 200 kts 234°
2026-05-07 16:39 49.70118 6.39945 3710 ft 195 kts 230°
2026-05-07 16:40 49.69273 6.38322 3393 ft 193 kts 233°
2026-05-07 16:40 49.68499 6.36625 3114 ft 193 kts 237°
2026-05-07 16:40 49.67788 6.34897 2886 ft 192 kts 239°
2026-05-07 16:40 49.67110 6.33158 2626 ft 183 kts 240°
2026-05-07 16:41 49.66495 6.31537 2377 ft 171 kts 240°
2026-05-07 16:41 49.65918 6.30000 2125 ft 158 kts 240°
2026-05-07 16:41 49.65396 6.28594 1888 ft 146 kts 241°
2026-05-07 16:41 49.64889 6.27229 1722 ft 145 kts 241°
2026-05-07 16:42 49.64379 6.25861 1597 ft 148 kts 240°
2026-05-07 16:42 49.63879 6.24497 1401 ft 146 kts 241°
2026-05-07 16:42 49.63381 6.23141 1217 ft 143 kts 241°
2026-05-07 16:42 49.62936 6.21933 1213 ft 108 kts 241°
2026-05-07 16:43 49.62643 6.21155 1225 ft 59 kts 242°
2026-05-07 16:43 49.62471 6.20695 1225 ft 33 kts 238°
2026-05-07 16:43 49.62487 6.20523 1225 ft 16 kts 327°
2026-05-07 16:43 49.62572 6.20457 1226 ft 10 kts
2026-05-07 16:44 49.62626 6.20519 1228 ft 9 kts 46°
2026-05-07 16:44 49.62667 6.20584 1231 ft 7 kts 44°
2026-05-07 16:44 49.62702 6.20628 1232 ft 5 kts 36°
2026-05-07 16:44 49.62739 6.20668 1234 ft 8 kts 35°
2026-05-07 16:45 49.62793 6.20749 1236 ft 10 kts 53°
2026-05-07 16:45 49.62826 6.20839 1239 ft 8 kts 64°
2026-05-07 16:45 49.62856 6.20934 1237 ft 12 kts 63°
2026-05-07 16:45 49.62902 6.21078 1237 ft 17 kts 64°
2026-05-07 16:46 49.62961 6.21274 1233 ft 23 kts 63°
2026-05-07 16:46 49.63036 6.21512 1228 ft 21 kts 64°
2026-05-07 16:46 49.63058 6.21588 1227 ft 6 kts 67°
2026-05-07 16:46 49.63082 6.21670 1226 ft 10 kts 64°
2026-05-07 16:47 49.63122 6.21766 1223 ft 9 kts 22°
2026-05-07 16:47 49.63180 6.21742 1227 ft 6 kts 333°
2026-05-07 16:47 49.63206 6.21718 1229 ft 2 kts 327°
2026-05-07 16:47 49.63227 6.21695 1232 ft 5 kts 326°
2026-05-07 16:48 49.63263 6.21669 1235 ft 4 kts
2026-05-07 16:48 49.63293 6.21711 1235 ft 10 kts 57°
2026-05-07 16:48 49.63300 6.21803 1232 ft 5 kts 137°
2026-05-07 16:48 49.63271 6.21777 1231 ft 5 kts 231°
2026-05-07 16:49 49.63260 6.21751 1231 ft 0 kts 239°